Flag Weather past 2 weeks in Tarnów, Poland

Now
33 °F

Fog.


Feels Like: 33 °F
Forecast: 26 / 32 °F
Wind: 2 mph from East

Location: Tarnow

Current Time: Nov 27, 2014 at 5:45:51 AM

Latest Report: Nov 27, 2014 at 5:00 AM


Visibility: 1 mi

Pressure: 30.23 "Hg

Humidity: 97%

Dew point: 32 °F

Location of TarnówLocation

Historic Weather in Tarnów — Graph

°F

Tarnów temperature yesterday

Maximum temperature yesterday: 42 °F (at 1:00 PM)
Minimum temperature yesterday: 33 °F (at 10:00 PM)
Average temperature yesterday: 37 °F

Past Weeks' High & Low Weather Summary

 TemperatureHumidityPressure
High60 °F (Nov 12, 11:00 AM)99% (Nov 26, 9:00 AM)30.51 "Hg (Nov 26, 9:00 AM)
Low29 °F (Nov 24, 7:00 AM)57% (Nov 12, 1:00 PM)29.80 "Hg (Nov 16, 2:00 PM)
Average41 °F88%30.15 "Hg
* Reported Nov 12 4:00 AM — Nov 27 4:00 AM, Tarnów, Weather by CustomWeather, © 2014

Note: Actual official high and low records may vary slightly from our data, if they occured in-between our weather recording intervals... More about our weather records

Advertising

Tarnów weather history for previous 24 hours

 ConditionsComfort  
Time TempWeatherWind HumidityBarometerVisibility
4:00 AM
Nov 27
33 °FFog.2 mph97%30.23 "Hg1 mi
3:00 AM34 °FFog.2 mph96%30.24 "Hg1 mi
2:00 AM34 °FFog.1 mph96%30.25 "Hg1 mi
12:00 AM36 °FChilly.1 mph98%30.26 "Hg1 mi
11:00 PM
Nov 26
35 °FDuststorm.1 mph98%30.27 "Hg1 mi
10:00 PM33 °FDuststorm.No wind97%30.28 "Hg0 mi
9:00 PM34 °FDuststorm.No wind97%30.27 "Hg1 mi
8:00 PM35 °FDuststorm.No wind96%30.28 "Hg1 mi
7:00 PM36 °FFog.No wind96%30.28 "Hg1 mi
6:00 PM36 °FFog.1 mph96%30.28 "Hg1 mi
5:00 PM36 °FFog.1 mph94%30.29 "Hg1 mi
4:00 PM38 °FFog.1 mph91%30.29 "Hg1 mi
3:00 PM39 °FFog.1 mph83%30.29 "Hg3 mi
2:00 PM42 °FQuite cool.1 mph69%30.29 "Hg8 mi
1:00 PM42 °FFog.1 mph77%30.29 "Hg6 mi
12:00 PM40 °FFog.1 mph86%30.31 "Hg4 mi
11:00 AM39 °FFog.1 mph98%30.32 "Hg3 mi
10:00 AM37 °FFog.1 mph98%30.34 "Hg1 mi
9:00 AM36 °FChilly.No wind99%30.34 "Hg1 mi
8:00 AM35 °FDuststorm.1 mph98%30.35 "Hg0 mi
7:00 AM36 °FDuststorm.1 mph98%30.34 "Hg0 mi
6:00 AM36 °FDuststorm.2 mph98%30.32 "Hg1 mi
5:00 AM37 °FDuststorm.No wind98%30.33 "Hg1 mi
Weather by CustomWeather, © 2014

See weather overviewHow to use our weather pages